Weather History for Hamilton, OH

Change the Weather History Date:

Friday, July 19, 2013

  Actual Average (KCVG) Record (KCVG)
Temperature  
Mean Temperature 82 °F 76 °F  
Max Temperature 91 °F 86 °F 99 °F (1946)
Min Temperature 73 °F 66 °F 52 °F (1984)
Degree Days  
Heating Degree Days 0 0  
Month to date heating degree days 0  
Since 1 June heating degree days 15  
Since 1 July heating degree days 0  
Cooling Degree Days 16 11  
Month to date cooling degree days 207  
Year to date cooling degree days 527  
Since 1 June cooling degree days 433  
Growing Degree Days 32 (Base 50)    
Moisture  
Dew Point 73 °F    
Average Humidity 81    
Maximum Humidity 97    
Minimum Humidity 62    
Precipitation  
Precipitation 0.10 in 0.11 in 2.77 in (1988)
Month to date precipitation 2.28  
Year to date precipitation 24.90  
Snow  
Snow 0.00 in 0.00 in 0.00 in ()
Month to date snowfall 0.0  
Since 1 June snowfall 0.0  
Since 1 July snowfall 0.0  
Snow Depth -    
Sea Level Pressure  
Sea Level Pressure 29.99 in    
Wind  
Wind Speed 2 mph (SSW)    
Max Wind Speed 13 mph    
Max Gust Speed 31 mph    
Visibility 5 miles    
Events Rain , Thunderstorm    
T = Trace of Precipitation, MM = Missing Value Source: NWS Daily Summary

Daily Weather History Graph

Daily Weather History Graph

Search for Another Location

Airport:

Trip Planner

Search our weather history database for the weather conditions in past years. The results will help you decide how hot, cold, wet, or windy it might be!

Date:

Astronomy

Jul. 19, 2013 Rise Set
Actual Time 6:27 AM EDT 9:01 PM EDT
Civil Twilight 5:55 AM EDT 9:32 PM EDT
Nautical Twilight 5:17 AM EDT 10:10 PM EDT
Astronomical Twilight 4:33 AM EDT 10:54 PM EDT
Moon 6:02 PM EDT (7/19) 3:07 AM EDT (7/19)
Length of Visible Light 15h 36m
Length of Day
14h 34m
Waxing Gibbous, 86% of the Moon is Illuminated
Jul 19
Waxing Gibbous
Jul 22
Full
Jul 29
Last Quarter
Aug 6
New
Aug 14
First Quarter

Hourly Weather History & Observations

Time (EDT) Temp. Heat Index Dew Point Humidity Pressure Visibility Wind Dir Wind Speed Gust Speed Precip Events Conditions
12:53 AM 75.0 °F - 73.0 °F 94% 30.05 in 9.0 mi Calm Calm - N/A   Clear
1:53 AM 75.0 °F - 73.0 °F 94% 30.04 in 7.0 mi Calm Calm - N/A   Clear
2:53 AM 73.9 °F - 72.0 °F 93% 30.04 in 7.0 mi Calm Calm - N/A   Clear
3:53 AM 73.9 °F - 72.0 °F 93% 30.03 in 5.0 mi Calm Calm - N/A   Clear
4:53 AM 73.0 °F - 71.1 °F 93% 30.02 in 4.0 mi Calm Calm - N/A   Clear
5:53 AM 73.9 °F - 73.0 °F 97% 30.02 in 4.0 mi Calm Calm - N/A   Clear
6:37 AM 73.4 °F - 71.6 °F 94% 30.05 in 2.0 mi Calm Calm - N/A   Clear
6:45 AM 73.4 °F - 71.6 °F 94% 30.04 in 1.8 mi Calm Calm - N/A   Clear
6:53 AM 73.0 °F - 72.0 °F 96% 30.03 in 1.8 mi Calm Calm - N/A   Clear
7:11 AM 73.4 °F - 71.6 °F 94% 30.04 in 2.5 mi Calm Calm - N/A   Clear
7:19 AM 75.2 °F - 73.4 °F 94% 30.04 in 3.0 mi Calm Calm - N/A   Clear
7:53 AM 79.0 °F - 75.0 °F 88% 30.02 in 3.0 mi Calm Calm - N/A   Clear
8:53 AM 82.0 °F 88.6 °F 75.0 °F 79% 30.03 in 5.0 mi Variable 3.5 mph - N/A   Haze
9:53 AM 84.9 °F 93.3 °F 75.0 °F 72% 30.04 in 6.0 mi SW 4.6 mph - N/A   Haze
10:53 AM 86.0 °F 96.0 °F 75.9 °F 72% 30.03 in 6.0 mi Variable 6.9 mph - N/A   Haze
11:53 AM 87.1 °F 96.3 °F 75.0 °F 67% 30.03 in 6.0 mi Variable 3.5 mph - N/A   Haze
12:38 PM 89.6 °F 99.8 °F 75.2 °F 62% 30.03 in 7.0 mi SW 6.9 mph - N/A Thunderstorm Thunderstorm
12:53 PM 84.9 °F 93.3 °F 75.0 °F 72% 30.01 in 6.0 mi SSW 6.9 mph - N/A   Haze
1:00 PM 84.2 °F 90.9 °F 73.4 °F 70% 30.02 in 6.0 mi SSW 3.5 mph - N/A Thunderstorm Unknown
1:45 PM 78.8 °F - 69.8 °F 74% 30.01 in 1.5 mi South 4.6 mph - 0.01 in Thunderstorm Unknown
1:53 PM 78.1 °F - 69.1 °F 74% 29.99 in 7.0 mi Calm Calm - 0.01 in Rain , Thunderstorm Light Rain
2:53 PM 87.1 °F 96.3 °F 75.0 °F 67% 29.97 in 8.0 mi Variable 6.9 mph - 0.00 in Thunderstorm Thunderstorm
3:33 PM 89.6 °F 99.8 °F 75.2 °F 62% 29.96 in 8.0 mi Variable 6.9 mph - N/A   Partly Cloudy
3:40 PM 89.6 °F 99.8 °F 75.2 °F 62% 29.96 in 7.0 mi South 10.4 mph - N/A Thunderstorm Scattered Clouds
3:53 PM 90.0 °F 101.3 °F 75.9 °F 63% 29.94 in 6.0 mi SSW 8.1 mph - N/A   Haze
4:26 PM 89.6 °F 102.2 °F 77.0 °F 66% 29.94 in 6.0 mi SW 4.6 mph - N/A Thunderstorm Haze
4:50 PM 77.0 °F - 66.2 °F 69% 29.95 in 1.8 mi Variable 6.9 mph 31.1 mph 0.04 in Rain , Thunderstorm Heavy Thunderstorms and Rain
4:53 PM 75.9 °F - 68.0 °F 76% 29.96 in 1.2 mi SW 8.1 mph 31.1 mph 0.04 in Rain , Thunderstorm Light Thunderstorms and Rain
5:03 PM 75.2 °F - 69.8 °F 83% 29.96 in 4.0 mi North 12.7 mph 18.4 mph 0.02 in Rain , Thunderstorm Light Thunderstorms and Rain
5:53 PM 78.1 °F - 73.9 °F 87% 29.93 in 6.0 mi SW 3.5 mph - 0.05 in Rain Light Rain
6:53 PM 81.0 °F 87.3 °F 75.9 °F 85% 29.90 in 7.0 mi Calm Calm - 0.00 in   Clear
7:53 PM 84.0 °F 92.6 °F 75.9 °F 76% 29.91 in 6.0 mi Calm Calm - N/A   Haze
8:53 PM 80.1 °F 85.8 °F 77.0 °F 90% 29.91 in 5.0 mi Calm Calm - N/A   Clear
9:53 PM 78.1 °F - 75.9 °F 93% 29.92 in 5.0 mi Calm Calm - N/A   Clear
10:53 PM 79.0 °F - 75.0 °F 88% 29.92 in 6.0 mi SW 3.5 mph - N/A   Partly Cloudy
11:53 PM 79.0 °F - 73.0 °F 82% 29.92 in 7.0 mi SSW 5.8 mph - N/A   Clear